Torna al catalogo

GALILEO 20

2C6

AttivoNavigazioneMEO
NORAD 43056·PAYLOAD·🇪🇺 EU

Lanciato Dec 12, 2017 da Guiana Space Centre

Loading…

Prossimi Passaggi (prossime 24 ore)

TLE

AggiornatoSource: CelesTrak SupGP

Epoca: Sep 13, 2026, 23:59 UTC

1 43056C 17079B   26256.99979167  .00000000  00000+0  00000+0 0  2564
2 43056  55.0536 219.0638 0004613 290.0998 143.0832  1.70474146    10

Traccia GALILEO 20 in tempo reale con AllMySat

Download on the App Store